Etusivu
METAR-TAF:

METAR-TAF

Lentoasemat :

Mora–Siljan

Mora, Ruotsi

Leveyspiiri: 60-57-31N, Pituuspiiri: 14-30-40E, korkeus merenpinnasta: 193 m

Tämänhetkinen sää

Tämä raportti tehtiin 24 minuuttia sitten, kello 19.20 UTC
Tuuli 9 kn lounaasta
Lämpötila 13°C
Kosteus 94%
Ilmanpaine 1003 hPa
Näkyvyys 10 km tai enemmän
heikkoa sadetta

METAR: ESKM 211920Z AUTO 23009KT 9999 -RA FEW007/// BKN017/// OVC025/// 13/12 Q1003 REDZ

Aika: 21:44 (19:44 UTC)


TAF: puuttuu

Säähavainnot ja -ennusteet yli 4000 lentoasemalta (METAR- ja TAF-raportit).

Käytössä olevat sääasemat on merkitty karttaan keltaisilla ja punaisilla pisteillä.

Aseta hiiri pisteen päälle nähdäksesi sääaseman nimen.

Klikkaa sitten nähdäksesi säähavainnot ja -ennusteet.

Kartan vaihtaminen: klikkaa mustalla rastilla varustettuja vihreitä pisteitä, niin voit zoomata sisään; viivalla varustettua vihreää pistettä, niin voit zoomata ulos tai vihreitä nuolia, niin pääset viereisille kartoille.


METAR-TAF: